Joplin, MO

3:45 PM CDT on June 24, 2017 (GMT -0500)
Joplin Regional

Weather History for KJLN - January, 2014

Change the Weather History Date:

Sunday, January 12, 2014

  Actual Average Record
Temperature  
Mean Temperature 50 °F 34 °F  
Max Temperature 67 °F 44 °F 70 °F (2000)
Min Temperature 32 °F 25 °F -4 °F (1963)
Degree Days  
Heating Degree Days 15 30  
Month to date heating degree days 441 360  
Since 1 July heating degree days 2311 1977  
Cooling Degree Days 0 0  
Month to date cooling degree days 0 0  
Year to date cooling degree days 0 0  
Moisture  
Dew Point 28 °F    
Average Humidity 49    
Maximum Humidity 75    
Minimum Humidity 22    
Precipitation  
Precipitation 0.00 in 0.06 in 1.08 in (2007)
Month to date precipitation 0.57 0.82  
Year to date precipitation 0.57 0.82  
Sea Level Pressure  
Sea Level Pressure 29.72 in    
Wind  
Wind Speed 22 mph (South)    
Max Wind Speed 40 mph    
Max Gust Speed 53 mph    
Visibility 10 miles    
Events      
T = Trace of Precipitation, MM = Missing Value Source: NWS Daily Summary

Daily Weather History Graph

Daily Weather History Graph

Search for Another Location

Airport or City:

Trip Planner

Search our weather history database for the weather conditions in past years. The results will help you decide how hot, cold, wet, or windy it might be!

Date:

Astronomy

Jan. 12, 2014 Rise Set
Actual Time 7:31 AM CST 5:21 PM CST
Civil Twilight 7:02 AM CST 5:50 PM CST
Nautical Twilight 6:30 AM CST 6:22 PM CST
Astronomical Twilight 5:59 AM CST 6:53 PM CST
Moon 2:49 PM CST (1/12) 4:31 AM CST (1/12)
Length of Visible Light 10h 47m
Length of Day
9h 50m
Waxing Gibbous, 90% of the Moon is Illuminated
Jan 12
Waxing Gibbous
Jan 15
Full
Jan 23
Last Quarter
Jan 30
New
Feb 6
First Quarter

Hourly Weather History & Observations

Time (CST) Temp. Windchill Dew Point Humidity Pressure Visibility Wind Dir Wind Speed Gust Speed Precip Events Conditions
12:53 AM 33.1 °F 26.9 °F 25.0 °F 72% 29.96 in 10.0 mi SSE 6.9 mph - N/A   Clear
1:53 AM 35.1 °F 27.4 °F 26.1 °F 70% 29.94 in 10.0 mi SSE 10.4 mph - N/A   Clear
2:53 AM 37.0 °F 29.8 °F 26.1 °F 65% 29.93 in 10.0 mi SSE 10.4 mph - N/A   Clear
3:53 AM 37.9 °F 29.6 °F 27.0 °F 65% 29.89 in 10.0 mi SSE 13.8 mph - N/A   Clear
4:53 AM 39.0 °F 31.4 °F 27.0 °F 62% 29.88 in 10.0 mi South 12.7 mph - N/A   Clear
5:53 AM 41.0 °F 33.5 °F 27.0 °F 57% 29.85 in 10.0 mi South 13.8 mph - N/A   Clear
6:53 AM 45.0 °F 37.4 °F 26.1 °F 48% 29.85 in 10.0 mi South 18.4 mph - N/A   Clear
7:53 AM 46.9 °F - 25.0 °F 42% 29.82 in 10.0 mi South 20.7 mph 28.8 mph N/A   Clear
8:53 AM 53.1 °F - 25.0 °F 34% 29.79 in 10.0 mi South 28.8 mph 49.5 mph N/A   Clear
9:53 AM 55.9 °F - 27.0 °F 33% 29.78 in 10.0 mi South 23.0 mph 44.9 mph N/A   Clear
10:53 AM 60.1 °F - 28.0 °F 30% 29.73 in 10.0 mi South 35.7 mph 44.9 mph N/A   Clear
11:53 AM 63.0 °F - 28.9 °F 28% 29.68 in 10.0 mi South 26.5 mph 42.6 mph N/A   Clear
12:53 PM 66.0 °F - 27.0 °F 23% 29.63 in 10.0 mi South 31.1 mph 46.0 mph N/A   Clear
1:53 PM 66.0 °F - 27.0 °F 23% 29.60 in 10.0 mi SSW 33.4 mph 46.0 mph N/A   Clear
2:53 PM 66.9 °F - 26.1 °F 21% 29.58 in 10.0 mi South 32.2 mph 40.3 mph N/A   Clear
3:53 PM 66.9 °F - 27.0 °F 22% 29.58 in 10.0 mi South 23.0 mph 34.5 mph N/A   Clear
4:53 PM 64.0 °F - 28.0 °F 26% 29.57 in 10.0 mi SSW 23.0 mph 41.4 mph N/A   Clear
5:53 PM 63.0 °F - 28.0 °F 27% 29.59 in 10.0 mi South 28.8 mph - N/A   Clear
6:53 PM 62.1 °F - 28.9 °F 29% 29.60 in 10.0 mi SSW 21.9 mph 33.4 mph N/A   Clear
7:53 PM 61.0 °F - 30.0 °F 31% 29.60 in 10.0 mi South 25.3 mph 40.3 mph N/A   Clear
8:53 PM 60.1 °F - 30.0 °F 32% 29.59 in 10.0 mi SSW 25.3 mph 34.5 mph N/A   Clear
9:53 PM 59.0 °F - 30.9 °F 35% 29.59 in 10.0 mi South 24.2 mph 33.4 mph N/A   Clear
10:53 PM 59.0 °F - 33.1 °F 38% 29.60 in 10.0 mi SSW 19.6 mph 28.8 mph N/A   Clear
11:53 PM 57.0 °F - 37.0 °F 47% 29.62 in 10.0 mi North - - N/A   Clear